When you browse on this site, cookies collect data to enhance your experience and personalize the content and advertising you see.
Visit our Privacy Policy to learn more. By continuing to use the site, you agree to this use of cookies and data.
  • In Austria
  • List of Countries
  • For 7 days
  • Water Temperature
  • Weather Map
  • News
  • Weather Widgets
  • user-avatar
    Login

    Hourly Weather Tskhaltubo

    Today, 28 January, Tuesday

    Time Temperature Precipitation Wind Pressure Humidity
    00:00 +4°C° 0 mm 4 mps 748 mmHg 57%
    01:00 +4°C° 0 mm 4 mps 748 mmHg 57%
    02:00 +4°C° 0 mm 3 mps 748 mmHg 56%
    03:00 +4°C° 0 mm 3 mps 748 mmHg 55%
    04:00 +4°C° 0 mm 3 mps 747 mmHg 55%
    05:00 +4°C° 0 mm 3 mps 747 mmHg 54%
    06:00 +4°C° 0 mm 3 mps 746 mmHg 54%
    07:00 +5°C° 0 mm 4 mps 746 mmHg 53%
    08:00 +5°C° 0 mm 4 mps 746 mmHg 52%
    09:00 +6°C° 0 mm 4 mps 746 mmHg 50%
    10:00 +8°C° 0 mm 4 mps 746 mmHg 48%
    11:00 +10°C° 0 mm 4 mps 745 mmHg 46%
    12:00 +12°C° 0 mm 4 mps 745 mmHg 43%
    13:00 +12°C° 0 mm 4 mps 744 mmHg 45%
    14:00 +12°C° 0 mm 4 mps 744 mmHg 46%
    15:00 +12°C° 0 mm 4 mps 743 mmHg 47%
    16:00 +11°C° 0 mm 4 mps 743 mmHg 49%
    17:00 +10°C° 0 mm 4 mps 743 mmHg 51%
    18:00 +8°C° 0 mm 4 mps 744 mmHg 52%
    19:00 +7°C° 0 mm 4 mps 744 mmHg 53%
    20:00 +7°C° 0 mm 4 mps 744 mmHg 53%
    21:00 +7°C° 0 mm 4 mps 744 mmHg 53%
    22:00 +7°C° 0 mm 4 mps 744 mmHg 54%
    23:00 +8°C° 0 mm 3 mps 744 mmHg 55%

    Tomorrow, 29 January, Wednesday

    Time Temperature Precipitation Wind Pressure Humidity
    00:00 +8°C° 0 mm 3 mps 743 mmHg 56%
    01:00 +7°C° 0 mm 2 mps 743 mmHg 57%
    02:00 +7°C° 0 mm 2 mps 743 mmHg 59%
    03:00 +7°C° 0 mm 2 mps 743 mmHg 61%
    04:00 +7°C° 0 mm 2 mps 743 mmHg 62%
    05:00 +7°C° 0 mm 2 mps 743 mmHg 64%
    06:00 +7°C° 0 mm 2 mps 743 mmHg 65%
    07:00 +7°C° 0.1 mm 2 mps 743 mmHg 67%
    08:00 +8°C° 0.1 mm 1 mps 743 mmHg 69%
    09:00 +8°C° 0.1 mm 1 mps 744 mmHg 71%
    10:00 +9°C° 0.1 mm 1 mps 743 mmHg 70%
    11:00 +10°C° 0.1 mm 1 mps 743 mmHg 70%
    12:00 +9°C° 0.1 mm 0 mps 742 mmHg 69%
    13:00 +9°C° 0.1 mm 0 mps 742 mmHg 70%
    14:00 +10°C° 0.1 mm 0 mps 742 mmHg 71%
    15:00 +10°C° 0.1 mm 0 mps 742 mmHg 72%
    16:00 +9°C° 0 mm 0 mps 742 mmHg 75%
    17:00 +9°C° 0 mm 1 mps 742 mmHg 77%
    18:00 +9°C° 0 mm 1 mps 743 mmHg 79%
    19:00 +9°C° 0 mm 1 mps 743 mmHg 79%
    20:00 +8°C° 0 mm 1 mps 743 mmHg 79%
    21:00 +7°C° 0 mm 2 mps 743 mmHg 78%
    22:00 +7°C° 0 mm 2 mps 743 mmHg 78%
    23:00 +6°C° 0 mm 2 mps 743 mmHg 78%

    Day after tomorrow, 30 January, Thursday

    Time Temperature Precipitation Wind Pressure Humidity
    00:00 +6°C° 0 mm 2 mps 743 mmHg 77%
    01:00 +6°C° 0 mm 2 mps 743 mmHg 76%
    02:00 +6°C° 0 mm 2 mps 743 mmHg 75%
    03:00 +6°C° 0 mm 2 mps 743 mmHg 74%
    04:00 +6°C° 0 mm 2 mps 743 mmHg 72%
    05:00 +6°C° 0 mm 2 mps 743 mmHg 71%
    06:00 +6°C° 0 mm 2 mps 743 mmHg 70%
    07:00 +6°C° 0 mm 2 mps 744 mmHg 70%
    08:00 +8°C° 0 mm 1 mps 744 mmHg 71%
    09:00 +8°C° 0 mm 1 mps 744 mmHg 71%
    10:00 +8°C° 0.2 mm 1 mps 744 mmHg 72%
    11:00 +9°C° 0.2 mm 1 mps 743 mmHg 74%
    12:00 +9°C° 0.2 mm 1 mps 743 mmHg 76%
    13:00 +9°C° 0.1 mm 1 mps 743 mmHg 76%
    14:00 +9°C° 0.1 mm 1 mps 742 mmHg 77%
    15:00 +10°C° 0.1 mm 1 mps 742 mmHg 77%
    16:00 +9°C° 0.1 mm 1 mps 742 mmHg 79%
    17:00 +8°C° 0.1 mm 2 mps 742 mmHg 80%
    18:00 +8°C° 0.1 mm 3 mps 741 mmHg 81%
    19:00 +7°C° 0.1 mm 3 mps 741 mmHg 79%
    20:00 +7°C° 0.1 mm 3 mps 741 mmHg 77%
    21:00 +7°C° 0.1 mm 3 mps 741 mmHg 75%
    22:00 +7°C° 0.3 mm 2 mps 741 mmHg 77%
    23:00 +7°C° 0.3 mm 2 mps 740 mmHg 79%

    31 January, Friday

    Time Temperature Precipitation Wind Pressure Humidity
    00:00 +8°C° 0.3 mm 1 mps 740 mmHg 81%
    01:00 +7°C° 0.6 mm 1 mps 740 mmHg 84%
    02:00 +7°C° 0.6 mm 1 mps 740 mmHg 87%
    03:00 +7°C° 0.6 mm 1 mps 740 mmHg 90%
    04:00 +7°C° 0.7 mm 1 mps 740 mmHg 91%
    05:00 +7°C° 0.7 mm 1 mps 740 mmHg 91%
    06:00 +6°C° 0.7 mm 1 mps 740 mmHg 92%
    07:00 +6°C° 0.5 mm 1 mps 740 mmHg 91%
    08:00 +6°C° 0.5 mm 1 mps 741 mmHg 91%
    09:00 +6°C° 0.5 mm 1 mps 741 mmHg 90%
    10:00 +6°C° 0.6 mm 1 mps 741 mmHg 91%
    11:00 +6°C° 0.6 mm 1 mps 741 mmHg 93%
    12:00 +6°C° 0.6 mm 1 mps 740 mmHg 94%
    13:00 +5°C° 1 mm 2 mps 740 mmHg 94%
    14:00 +5°C° 1 mm 2 mps 740 mmHg 94%
    15:00 +4°C° 1 mm 3 mps 740 mmHg 95%
    16:00 +4°C° 0.6 mm 3 mps 741 mmHg 95%
    17:00 +4°C° 0.6 mm 2 mps 741 mmHg 95%
    18:00 +4°C° 0.6 mm 2 mps 742 mmHg 95%
    19:00 +4°C° 0.3 mm 2 mps 742 mmHg 95%
    20:00 +4°C° 0.3 mm 2 mps 743 mmHg 94%
    21:00 +4°C° 0.3 mm 2 mps 743 mmHg 94%
    22:00 +5°C° 0.1 mm 1 mps 743 mmHg 93%
    23:00 +4°C° 0.1 mm 1 mps 743 mmHg 93%

    1 February, Saturday

    Time Temperature Precipitation Wind Pressure Humidity
    00:00 +3°C° 0.1 mm 0 mps 742 mmHg 92%
    01:00 +4°C° 0.1 mm 1 mps 742 mmHg 92%
    02:00 +4°C° 0.1 mm 1 mps 742 mmHg 93%
    03:00 +4°C° 0.1 mm 1 mps 742 mmHg 93%
    04:00 +4°C° 0.2 mm 1 mps 742 mmHg 93%
    05:00 +4°C° 0.2 mm 1 mps 742 mmHg 94%
    06:00 +4°C° 0.2 mm 1 mps 742 mmHg 94%
    07:00 +4°C° 0.1 mm 1 mps 742 mmHg 93%
    08:00 +4°C° 0.1 mm 1 mps 742 mmHg 91%
    09:00 +5°C° 0.1 mm 1 mps 742 mmHg 89%
    10:00 +5°C° 0.1 mm 1 mps 742 mmHg 88%
    11:00 +4°C° 0.1 mm 2 mps 742 mmHg 86%
    12:00 +5°C° 0.1 mm 2 mps 741 mmHg 85%
    13:00 +4°C° 0.1 mm 3 mps 741 mmHg 86%
    14:00 +4°C° 0.1 mm 3 mps 741 mmHg 87%
    15:00 +4°C° 0.1 mm 3 mps 741 mmHg 89%
    16:00 +4°C° 0.1 mm 2 mps 742 mmHg 89%
    17:00 +4°C° 0.1 mm 2 mps 743 mmHg 90%
    18:00 +5°C° 0.1 mm 1 mps 743 mmHg 91%
    19:00 +4°C° 0.1 mm 1 mps 744 mmHg 90%
    20:00 +4°C° 0.1 mm 1 mps 745 mmHg 90%
    21:00 +4°C° 0.1 mm 1 mps 745 mmHg 90%
    22:00 +3°C° 0 mm 1 mps 746 mmHg 88%
    23:00 +3°C° 0 mm 1 mps 746 mmHg 87%

    2 February, Sunday

    Time Temperature Precipitation Wind Pressure Humidity
    00:00 +2°C° 0 mm 1 mps 746 mmHg 86%
    01:00 +2°C° 0 mm 1 mps 747 mmHg 84%
    02:00 +2°C° 0 mm 1 mps 747 mmHg 82%
    03:00 +2°C° 0 mm 1 mps 747 mmHg 80%
    04:00 +2°C° 0 mm 1 mps 747 mmHg 78%
    05:00 +1°C° 0 mm 1 mps 748 mmHg 76%
    06:00 +1°C° 0 mm 1 mps 748 mmHg 74%
    07:00 +2°C° 0 mm 1 mps 748 mmHg 72%
    08:00 +2°C° 0 mm 2 mps 748 mmHg 69%
    09:00 +2°C° 0 mm 2 mps 748 mmHg 67%
    10:00 +5°C° 0 mm 1 mps 748 mmHg 66%
    11:00 +6°C° 0 mm 1 mps 748 mmHg 65%
    12:00 +7°C° 0 mm 1 mps 747 mmHg 64%
    13:00 +8°C° 0 mm 1 mps 747 mmHg 63%
    14:00 +8°C° 0 mm 1 mps 747 mmHg 61%
    15:00 +8°C° 0 mm 1 mps 746 mmHg 60%
    16:00 +7°C° 0 mm 1 mps 747 mmHg 64%
    17:00 +6°C° 0 mm 1 mps 747 mmHg 67%
    18:00 +5°C° 0 mm 1 mps 747 mmHg 71%
    19:00 +4°C° 0 mm 2 mps 747 mmHg 71%
    20:00 +4°C° 0 mm 2 mps 747 mmHg 71%
    21:00 +3°C° 0 mm 2 mps 747 mmHg 71%
    22:00 +3°C° 0 mm 2 mps 747 mmHg 70%
    23:00 +4°C° 0 mm 2 mps 747 mmHg 69%
    Show more